This is the latest recevied weather packets stored in our database for station/object KK7RJD. If no packets are shown the sender has not sent any weather packets the latest 10 day(s).
| Time | Temp. | Humidity | Pressure | Rain* | Wind** | Luminosity | Snow |
|---|---|---|---|---|---|---|---|
| 1777499653 | 11.11° C | 44% | 1020.9 hPa | 0 mm | - | 755 W/m² | - |
| 1777499350 | 11.67° C | 42% | 1020.8 hPa | 0 mm | - | 216 W/m² | - |
| 1777499049 | 12.22° C | 45% | 1020.7 hPa | 0 mm | - | 504 W/m² | - |
| 1777498744 | 11.67° C | 43% | 1020.9 hPa | 0 mm | - | 766 W/m² | - |
| 1777498440 | 11.67° C | 46% | 1021 hPa | 0 mm | - | 713 W/m² | - |
| 1777498137 | 11.67° C | 46% | 1020.9 hPa | 0 mm | - | 650 W/m² | - |
| 1777497835 | 11.67° C | 44% | 1021 hPa | 0 mm | - | 760 W/m² | - |
| 1777497531 | 11.11° C | 43% | 1020.9 hPa | 0 mm | - | 644 W/m² | - |
| 1777497227 | 11.67° C | 42% | 1021 hPa | 0 mm | - | 615 W/m² | - |
| 1777496924 | 12.22° C | 42% | 1020.9 hPa | 0 mm | - | 632 W/m² | - |
| 1777496621 | 12.78° C | 41% | 1020.7 hPa | 0 mm | - | 745 W/m² | - |
| 1777496317 | 12.78° C | 40% | 1020.6 hPa | 0 mm | - | 862 W/m² | - |
| 1777496013 | 12.78° C | 37% | 1020.7 hPa | 0 mm | - | 819 W/m² | - |
| 1777495709 | 12.22° C | 37% | 1020.9 hPa | 0 mm | - | 855 W/m² | - |
| 1777495406 | 12.78° C | 38% | 1020.8 hPa | 0 mm | - | 847 W/m² | - |
| 1777495102 | 11.11° C | 40% | 1020.8 hPa | 0 mm | - | 882 W/m² | - |
| 1777494800 | 11.67° C | 37% | 1020.8 hPa | 0 mm | - | 302 W/m² | - |
| 1777494496 | 12.78° C | 34% | 1020.8 hPa | 0 mm | - | 518 W/m² | - |
| 1777494194 | 12.22° C | 38% | 1020.5 hPa | 0 mm | - | 801 W/m² | - |
| 1777493891 | 12.22° C | 38% | 1020.8 hPa | 0 mm | - | 794 W/m² | - |
| 1777493589 | 11.11° C | 42% | 1020.9 hPa | 0 mm | - | 672 W/m² | - |
| 1777493286 | 10.56° C | 42% | 1020.8 hPa | 0 mm | - | 345 W/m² | - |
| 1777492982 | 10.56° C | 41% | 1020.8 hPa | 0 mm | - | 318 W/m² | - |
| 1777492679 | 10.56° C | 42% | 1020.9 hPa | 0 mm | - | 329 W/m² | - |
| 1777492379 | 10.56° C | 43% | 1020.8 hPa | 0 mm | - | 320 W/m² | - |
* Rain latest hour (hover to see other rain measurements)
** Current wind speed in m/s (hover to see current wind gust speed)